Showing default

TIROS 10, 1430

Orbit data source: Space-Track

TIROS 10, 1430 is a payload satellite owned by ESSA (US) in SSO that was launched on Fri, 02 Jul 1965 UTC via a THOR DELTA C launch vehicle from the Air Force Eastern Test Range (AFETR). Payload-class satellites include a variety of spacecraft equipped with specific instruments for various scientific and technological missions. These include communications satellites like Starlink; space stations such as the ISS; scientific satellites like the Hubble; Earth observation satellites from companies like Planet Labs, Umbra, and HawkEye 360; GPS; miniature CubeSats for education and research; and military/defense satellites.

Loading next visibility...
Identifier
1430, 1965-051A
Orbit
SSO
Country
Flag of USUS
Related business
Manufacturer
RCA/East Windsor
Mission
Non-operational spacecraft
Bus & Motor
TIROS I, Unknown motor
Mass
127 kg wet, 127 kg dry
Launch date (UTC)
1965-07-02 (60 years ago)
Launch vehicle
THOR DELTA C
Launch site
Air Force Eastern Test Range (AFETR)
Object type
Payload
Rocket body
Debris
Shape & HBR
Unknown
Radar Cross Section
Medium (>0.1 m² and <1 m²)

Expand to show TLE details & history
Last TLE update: 13 hours ago

TLE from 13 hours ago
0 TIROS 10
1 01430U 65051A   25287.26563283  .00000338  00000-0  11569-3 0  9993
2 01430  98.4812  43.0647 0056544  97.4400 263.3219 14.41484601160482
Epoch: 2025-10-14T06:22Z
TLE epoch observation values (Epoch: 2025-10-14T06:22:30.676Z)
Latitude
Longitude
-75.61965°
Altitude
761.464 km
Speed
7.471 km/s
True Right ascension
02h 52m 15s
True Declination
0° 00' 00"
Sunlit
Object was in full shadow at epoch
Visualization orbit readout
Latitude
Unknown
Longitude
Unknown
Altitude
Unknown
Speed
Unknown
Apparent Right ascension
Unknown
Apparent Declination
Unknown
Sunlit
N/A
Visualization observer readout
Local Sidereal Time
13:39:12
Azimuth
Unknown
Elevation
Unknown
Doppler factor
Unknown
Orbital elements
Apogee altitude
791.026 km
Perigee altitude
710.407 km
Semi-major axis
7,128.853 km
Eccentricity
0.00565
Inclination
98.4812°
RAAN
43.0647°
Arg. of periapsis
97.44°
True anomaly
262.67889°
Mean anomaly
263.3219°
Eccentric anomaly
263.00034°
Mean motion
3.6059 °/min
Orbital period
99.84 mins
BSTAR
0.00011569
Loading maneuver chart data...
Computing Atmospheric mass density...
Loading historical data...
Loading historical data...
Loading historical data...
Loading historical data...
Loading historical data...
Loading historical data...
Loading historical data...
Other satellites on launch #51 in the year 1965 (1965-07-02 UTC)

Documentation

Showing up to 5 results
|